FLOCK 3P-9

Last updated on Wed Feb 14 2018 16:20:22 GMT+0000 (Coordinated Universal Time)

1 41973U 17008AB 18044.72740880 .00002102 00000-0 89930-4 0 9991 2 41973 97.4661 110.2363 0009796 71.0040 289.2257 15.23914383 55226
UTC large
Height (km)
Speed (km/s)
/
Latitude / Longitude
Inclination (degrees)
Orbital Period (minutes)
Azimuth
Elevation
Range (km)
Doppler Factor

Next 0 passes for location: London (51.5072 / 0.1276)

Sorry there are no passes over London.
FLOCK 3P-9